This demonstration page uses our WeatherBlox Daily Observations layout. Learn more.

Left ArrowRight Arrow

44.89941, -97.11507

Hourly Observations for June 20, 2021

Temp ( °F °C ) Dew Point ( °F °C ) Humidity (%) Winds ( mph kmh ) Pressure ( in mb ) Visibility ( mi km ) Precip ( " mm )
12:53 am 00:53 Clear 69 20.6 48 8.9 47 47 ESE 6 9 29.67 1005 10 16 0.00 0.00
1:53 am 01:53 Partly Cloudy 68 20 49 9.4 51 51 SE 6 9 29.66 1004 10 16 0.00 0.00
2:53 am 02:53 Clear 67 19.4 50 10 55 55 SE 7 11 29.62 1003 10 16 0.00 0.00
3:53 am 03:53 Partly Cloudy 67 19.4 49 9.4 53 53 SE 7 11 29.61 1003 10 16 0.00 0.00
4:53 am 04:53 Partly Cloudy 67 19.4 49 9.4 53 53 ESE 7 11 29.61 1003 10 16 0.00 0.00
5:53 am 05:53 Partly Cloudy 65 18.3 50 10 59 59 SSE 8 13 29.63 1003 10 16 0.00 0.00
6:53 am 06:53 Sunny 65 18.3 50 10 59 59 SSE 9 15 29.58 1002 10 16 0.00 0.00
7:53 am 07:53 Sunny 66 18.9 52 11.1 61 61 SSE 10 17 29.57 1001 10 16 0.00 0.00
8:53 am 08:53 Mostly Cloudy 67 19.4 53 11.7 61 61 S 15 24 29.55 1001 10 16 0.00 0.00
9:53 am 09:53 Cloudy with Light Rain 65 18.3 57 13.9 76 76 S 14 22 29.53 1000 10 16 0.00 0.00
10:53 am 10:53 Mostly Sunny 65 18.3 59 15 81 81 S 15 24 29.55 1001 10 16 0.01 0.25
11:53 am 11:53 Mostly Cloudy 67 19.4 59 15 76 76 SW 13 20 29.55 1001 10 16 0.00 0.00
12:53 pm 12:53 Cloudy 68 20 59 15 73 73 WNW 12 19 29.55 1001 10 16 0.00 0.00
1:03 pm 13:03 Cloudy 68 20 58 14.4 70 70 NW 14 22 29.53 1000 10 16 0.00 0.00
1:38 pm 13:38 Cloudy 68 20 58 14.4 70 70 NNW 21 33 29.54 1000 10 16 0.00 0.00
1:53 pm 13:53 Cloudy 66 18.9 58 14.4 75 75 NNW 26 43 29.59 1002 10 16 0.00 0.00
2:26 pm 14:26 Cloudy 63 17.2 56 13.3 78 78 N 30 48 29.61 1003 10 16 0.00 0.00
2:34 pm 14:34 Cloudy 64 17.8 56 13.3 75 75 N 24 39 29.61 1003 10 16 0.00 0.00
2:46 pm 14:46 Cloudy 67 19.4 56 13.3 68 68 N 30 48 29.61 1003 10 16 0.00 0.00
2:53 pm 14:53 Cloudy 67 19.4 55 12.8 66 66 N 28 44 29.64 1004 10 16 0.00 0.00
3:46 pm 15:46 Mostly Cloudy 70 21.1 53 11.7 55 55 N 25 41 29.64 1004 10 16 0.00 0.00
3:53 pm 15:53 Mostly Cloudy 68 20 52 11.1 57 57 NNW 28 44 29.68 1005 10 16 0.00 0.00
4:53 pm 16:53 Mostly Cloudy 70 21.1 50 10 49 49 NNW 29 46 29.71 1006 10 16 0.00 0.00
5:53 pm 17:53 Mostly Cloudy 70 21.1 50 10 49 49 NNW 23 37 29.72 1007 10 16 0.00 0.00
6:53 pm 18:53 Cloudy 65 18.3 51 10.6 61 61 NNW 17 28 29.77 1008 10 16 0.00 0.00
7:53 pm 19:53 Mostly Cloudy 64 17.8 51 10.6 63 63 N 20 31 29.80 1009 10 16 0.00 0.00
8:53 pm 20:53 Cloudy 62 16.7 54 12.2 75 75 NNW 13 20 29.82 1010 10 16 0.00 0.00
9:53 pm 21:53 Cloudy 61 16.1 55 12.8 81 81 N 7 11 29.85 1011 10 16 0.00 0.00
10:53 pm 22:53 Mostly Clear 54 12.2 52 11.1 93 93 NNW 8 13 29.88 1012 10 16 0.01 0.25
11:53 pm 23:53 Mostly Clear 52 11.1 50 10 93 93 N 7 11 29.88 1012 10 16 0.00 0.00

Powered by AerisWeather